Wetterdaten: Donnerstag, 28.06.2012
Datum Zeit Temperatur Luftfeuchte Regen Wind Richtung Richtung Taupunkt Windchill Windben
28.06.2012 00:00 14,5 C 79 % 0,0 l/m 0,5 km/h (0 Bft) S 180 10,9 C 14,2 C 0,0 km/h (0 Bft)
28.06.2012 00:05 14,2 C 79 % 0,0 l/m 0,3 km/h (0 Bft) S-SW 202 10,6 C 14,2 C 0,0 km/h (0 Bft)
28.06.2012 00:10 13,9 C 80 % 0,0 l/m 0,2 km/h (0 Bft) N-NO 22 10,5 C 13,7 C 2,6 km/h (1 Bft)
28.06.2012 00:15 14,1 C 82 % 0,0 l/m 0,5 km/h (0 Bft) O-SO 112 11,1 C 13,6 C 0,0 km/h (0 Bft)
28.06.2012 00:20 13,7 C 82 % 0,0 l/m 0,5 km/h (0 Bft) N-NO 22 10,7 C 13,3 C 3,7 km/h (1 Bft)
28.06.2012 00:25 13,8 C 82 % 0,0 l/m 0,5 km/h (0 Bft) N-NO 22 10,8 C 13,3 C 0,0 km/h (0 Bft)
28.06.2012 00:30 13,4 C 82 % 0,0 l/m 0,0 km/h (0 Bft) W 270 10,4 C 13,0 C 0,0 km/h (0 Bft)
28.06.2012 00:35 13,3 C 82 % 0,0 l/m 0,0 km/h (0 Bft) SW 225 10,3 C 12,9 C 0,0 km/h (0 Bft)
28.06.2012 00:40 13,4 C 83 % 0,0 l/m 0,0 km/h (0 Bft) N-NO 22 10,6 C 12,7 C 0,0 km/h (0 Bft)
28.06.2012 00:45 13,6 C 84 % 0,0 l/m 0,0 km/h (0 Bft) N-NO 22 10,9 C 12,8 C 0,0 km/h (0 Bft)
28.06.2012 00:50 13,3 C 83 % 0,0 l/m 0,0 km/h (0 Bft) N-NO 22 10,5 C 12,6 C 0,0 km/h (0 Bft)
28.06.2012 00:55 13,2 C 84 % 0,0 l/m 0,0 km/h (0 Bft) N-NO 22 10,6 C 12,6 C 0,0 km/h (0 Bft)
28.06.2012 01:00 13,3 C 84 % 0,0 l/m 0,0 km/h (0 Bft) O 90 10,7 C 12,6 C 0,0 km/h (0 Bft)
28.06.2012 01:05 13,4 C 84 % 0,0 l/m 0,0 km/h (0 Bft) N-NO 22 10,8 C 12,5 C 0,0 km/h (0 Bft)
28.06.2012 01:10 13,7 C 84 % 0,0 l/m 0,0 km/h (0 Bft) N-NO 22 11,0 C 12,6 C 0,0 km/h (0 Bft)
28.06.2012 01:15 13,8 C 84 % 0,0 l/m 0,0 km/h (0 Bft) N-NO 22 11,1 C 12,9 C 0,0 km/h (0 Bft)
28.06.2012 01:20 13,7 C 84 % 0,0 l/m 0,2 km/h (0 Bft) N-NO 22 11,0 C 13,0 C 0,0 km/h (0 Bft)
28.06.2012 01:25 13,5 C 84 % 0,0 l/m 0,2 km/h (0 Bft) N-NO 22 10,8 C 13,0 C 0,0 km/h (0 Bft)
28.06.2012 01:30 13,3 C 84 % 0,0 l/m 1,4 km/h (1 Bft) NO 45 10,7 C 13,1 C 2,6 km/h (1 Bft)
28.06.2012 01:35 13,3 C 85 % 0,0 l/m 1,8 km/h (1 Bft) O-NO 67 10,8 C 13,0 C 0,0 km/h (0 Bft)
28.06.2012 01:40 13,1 C 85 % 0,0 l/m 0,6 km/h (0 Bft) N-NO 22 10,6 C 12,9 C 0,0 km/h (0 Bft)
28.06.2012 01:45 13,1 C 85 % 0,0 l/m 0,3 km/h (0 Bft) N-NO 22 10,6 C 12,8 C 0,0 km/h (0 Bft)
28.06.2012 01:50 13,2 C 85 % 0,0 l/m 0,3 km/h (0 Bft) NO 45 10,7 C 12,7 C 0,0 km/h (0 Bft)
28.06.2012 01:55 13,1 C 85 % 0,0 l/m 0,3 km/h (0 Bft) SO 135 10,6 C 12,7 C 2,3 km/h (1 Bft)
28.06.2012 02:00 13,0 C 85 % 0,0 l/m 0,0 km/h (0 Bft) N-NO 22 10,5 C 12,7 C 0,0 km/h (0 Bft)
28.06.2012 02:05 12,9 C 85 % 0,0 l/m 0,0 km/h (0 Bft) N 360 10,4 C 12,7 C 0,0 km/h (0 Bft)
28.06.2012 02:10 12,8 C 86 % 0,0 l/m 0,0 km/h (0 Bft) N-NO 22 10,5 C 12,5 C 0,0 km/h (0 Bft)
28.06.2012 02:15 12,7 C 86 % 0,0 l/m 0,0 km/h (0 Bft) NO 45 10,4 C 12,3 C 0,0 km/h (0 Bft)
28.06.2012 02:20 12,5 C 86 % 0,0 l/m 0,0 km/h (0 Bft) NO 45 10,2 C 12,1 C 0,0 km/h (0 Bft)
28.06.2012 02:25 12,7 C 87 % 0,0 l/m 0,0 km/h (0 Bft) NO 45 10,6 C 12,1 C 0,0 km/h (0 Bft)
28.06.2012 02:30 12,6 C 87 % 0,0 l/m 0,0 km/h (0 Bft) W-SW 247 10,5 C 12,0 C 0,0 km/h (0 Bft)
28.06.2012 02:35 12,4 C 87 % 0,0 l/m 0,0 km/h (0 Bft) N 360 10,3 C 11,9 C 0,0 km/h (0 Bft)
28.06.2012 02:40 12,1 C 86 % 0,0 l/m 0,0 km/h (0 Bft) S 180 9,8 C 11,8 C 0,0 km/h (0 Bft)
28.06.2012 02:45 12,0 C 86 % 0,0 l/m 0,0 km/h (0 Bft) S 180 9,7 C 11,8 C 0,0 km/h (0 Bft)
28.06.2012 02:50 11,9 C 87 % 0,0 l/m 0,0 km/h (0 Bft) N-NW 337 9,8 C 11,5 C 0,0 km/h (0 Bft)
28.06.2012 02:55 11,8 C 87 % 0,0 l/m 0,0 km/h (0 Bft) W-SW 247 9,7 C 11,4 C 0,0 km/h (0 Bft)
28.06.2012 03:00 11,9 C 88 % 0,0 l/m 0,0 km/h (0 Bft) NW 315 10,0 C 11,4 C 0,0 km/h (0 Bft)
28.06.2012 03:05 11,8 C 88 % 0,0 l/m 0,0 km/h (0 Bft) N-NO 22 9,9 C 11,4 C 0,0 km/h (0 Bft)
28.06.2012 03:10 11,7 C 88 % 0,0 l/m 0,0 km/h (0 Bft) N-NW 337 9,8 C 11,4 C 0,0 km/h (0 Bft)
28.06.2012 03:15 11,7 C 88 % 0,0 l/m 0,0 km/h (0 Bft) N-NO 22 9,8 C 11,3 C 0,0 km/h (0 Bft)
28.06.2012 03:20 11,7 C 89 % 0,0 l/m 0,0 km/h (0 Bft) N-NW 337 9,9 C 11,3 C 0,0 km/h (0 Bft)
28.06.2012 03:25 11,6 C 89 % 0,0 l/m 0,0 km/h (0 Bft) SW 225 9,8 C 11,4 C 0,0 km/h (0 Bft)
28.06.2012 03:30 11,7 C 89 % 0,0 l/m 0,0 km/h (0 Bft) N-NO 22 9,9 C 11,2 C 0,0 km/h (0 Bft)
28.06.2012 03:35 11,7 C 89 % 0,0 l/m 0,0 km/h (0 Bft) NO 45 9,9 C 11,2 C 0,0 km/h (0 Bft)
28.06.2012 03:40 11,6 C 89 % 0,0 l/m 0,0 km/h (0 Bft) N 360 9,8 C 11,2 C 0,0 km/h (0 Bft)
28.06.2012 03:45 11,7 C 89 % 0,0 l/m 0,0 km/h (0 Bft) N-NO 22 9,9 C 11,1 C 0,0 km/h (0 Bft)
28.06.2012 03:50 11,5 C 89 % 0,0 l/m 0,0 km/h (0 Bft) N 360 9,8 C 11,1 C 0,0 km/h (0 Bft)
28.06.2012 03:55 11,4 C 89 % 0,0 l/m 0,0 km/h (0 Bft) N 360 9,7 C 11,1 C 0,0 km/h (0 Bft)
28.06.2012 04:00 11,5 C 89 % 0,0 l/m 0,0 km/h (0 Bft) W-NW 292 9,8 C 11,0 C 0,0 km/h (0 Bft)
28.06.2012 04:05 11,4 C 89 % 0,0 l/m 0,0 km/h (0 Bft) W-SW 247 9,7 C 11,0 C 0,0 km/h (0 Bft)
28.06.2012 04:10 11,3 C 89 % 0,0 l/m 0,0 km/h (0 Bft) SO 135 9,6 C 10,9 C 0,0 km/h (0 Bft)
28.06.2012 04:15 11,3 C 89 % 0,0 l/m 0,0 km/h (0 Bft) N 360 9,6 C 10,8 C 0,0 km/h (0 Bft)
28.06.2012 04:20 11,1 C 89 % 0,0 l/m 0,0 km/h (0 Bft) S 180 9,4 C 10,8 C 0,0 km/h (0 Bft)
28.06.2012 04:25 11,2 C 89 % 0,0 l/m 0,0 km/h (0 Bft) N 360 9,5 C 10,7 C 0,0 km/h (0 Bft)
28.06.2012 04:30 11,2 C 90 % 0,0 l/m 0,2 km/h (0 Bft) N-NO 22 9,6 C 10,9 C 0,0 km/h (0 Bft)
28.06.2012 04:35 11,4 C 90 % 0,0 l/m 0,3 km/h (0 Bft) NO 45 9,8 C 10,9 C 0,0 km/h (0 Bft)
28.06.2012 04:40 11,3 C 90 % 0,0 l/m 0,2 km/h (0 Bft) S-SO 157 9,7 C 11,0 C 0,0 km/h (0 Bft)
28.06.2012 04:45 11,2 C 90 % 0,0 l/m 0,0 km/h (0 Bft) S 180 9,6 C 11,0 C 0,0 km/h (0 Bft)
28.06.2012 04:50 11,1 C 90 % 0,0 l/m 0,0 km/h (0 Bft) NW 315 9,5 C 10,8 C 0,0 km/h (0 Bft)
28.06.2012 04:55 11,1 C 90 % 0,0 l/m 0,0 km/h (0 Bft) W 270 9,5 C 10,8 C 0,0 km/h (0 Bft)
28.06.2012 05:00 11,1 C 90 % 0,0 l/m 0,0 km/h (0 Bft) N-NO 22 9,5 C 10,7 C 0,0 km/h (0 Bft)
28.06.2012 05:05 11,3 C 90 % 0,0 l/m 0,0 km/h (0 Bft) SO 135 9,7 C 10,7 C 0,0 km/h (0 Bft)
28.06.2012 05:10 11,1 C 90 % 0,0 l/m 0,0 km/h (0 Bft) S 180 9,5 C 10,7 C 0,0 km/h (0 Bft)
28.06.2012 05:15 11,1 C 90 % 0,0 l/m 0,0 km/h (0 Bft) NO 45 9,5 C 10,7 C 0,0 km/h (0 Bft)
28.06.2012 05:20 11,0 C 90 % 0,0 l/m 0,0 km/h (0 Bft) W-NW 292 9,4 C 10,6 C 0,0 km/h (0 Bft)
28.06.2012 05:25 11,2 C 90 % 0,0 l/m 0,0 km/h (0 Bft) N-NO 22 9,6 C 10,6 C 0,0 km/h (0 Bft)
28.06.2012 05:30 11,1 C 90 % 0,0 l/m 0,0 km/h (0 Bft) W-NW 292 9,5 C 10,6 C 0,0 km/h (0 Bft)
28.06.2012 05:35 10,9 C 91 % 0,0 l/m 0,0 km/h (0 Bft) N-NO 22 9,5 C 10,6 C 0,0 km/h (0 Bft)
28.06.2012 05:40 10,9 C 91 % 0,0 l/m 0,0 km/h (0 Bft) W-NW 292 9,5 C 10,5 C 0,0 km/h (0 Bft)
28.06.2012 05:45 10,9 C 91 % 0,0 l/m 0,0 km/h (0 Bft) S 180 9,5 C 10,5 C 0,0 km/h (0 Bft)
28.06.2012 05:50 11,1 C 91 % 0,0 l/m 0,0 km/h (0 Bft) W-NW 292 9,7 C 10,7 C 0,0 km/h (0 Bft)
28.06.2012 05:55 11,3 C 91 % 0,0 l/m 0,0 km/h (0 Bft) W-NW 292 9,9 C 10,8 C 0,0 km/h (0 Bft)
28.06.2012 06:00 11,5 C 91 % 0,0 l/m 0,0 km/h (0 Bft) NO 45 10,1 C 11,1 C 0,0 km/h (0 Bft)
28.06.2012 06:05 11,5 C 91 % 0,0 l/m 0,0 km/h (0 Bft) NO 45 10,1 C 11,1 C 0,0 km/h (0 Bft)
28.06.2012 06:10 11,4 C 91 % 0,0 l/m 0,2 km/h (0 Bft) N 360 10,0 C 11,4 C 0,0 km/h (0 Bft)
28.06.2012 06:15 11,7 C 91 % 0,0 l/m 0,3 km/h (0 Bft) N 360 10,3 C 11,4 C 2,1 km/h (1 Bft)
28.06.2012 06:20 12,3 C 91 % 0,0 l/m 0,2 km/h (0 Bft) O 90 10,9 C 12,1 C 0,0 km/h (0 Bft)
28.06.2012 06:25 12,7 C 90 % 0,0 l/m 0,2 km/h (0 Bft) O-SO 112 11,1 C 12,3 C 0,0 km/h (0 Bft)
28.06.2012 06:30 12,6 C 89 % 0,0 l/m 0,0 km/h (0 Bft) W-SW 247 10,8 C 12,6 C 0,0 km/h (0 Bft)
28.06.2012 06:35 12,6 C 89 % 0,0 l/m 0,0 km/h (0 Bft) S 180 10,8 C 12,5 C 0,0 km/h (0 Bft)
28.06.2012 06:40 12,6 C 89 % 0,0 l/m 0,0 km/h (0 Bft) W-SW 247 10,8 C 12,4 C 0,0 km/h (0 Bft)
28.06.2012 06:45 12,7 C 89 % 0,0 l/m 0,0 km/h (0 Bft) W 270 10,9 C 12,4 C 0,0 km/h (0 Bft)
28.06.2012 06:50 12,9 C 88 % 0,0 l/m 0,0 km/h (0 Bft) N-NO 22 11,0 C 12,7 C 0,0 km/h (0 Bft)
28.06.2012 06:55 13,5 C 87 % 0,0 l/m 0,0 km/h (0 Bft) N-NO 22 11,4 C 12,9 C 0,0 km/h (0 Bft)
28.06.2012 07:00 14,6 C 86 % 0,0 l/m 0,0 km/h (0 Bft) W-SW 247 12,3 C 14,0 C 0,0 km/h (0 Bft)
28.06.2012 07:05 14,8 C 85 % 0,0 l/m 0,0 km/h (0 Bft) SW 225 12,3 C 14,2 C 0,0 km/h (0 Bft)
28.06.2012 07:10 14,5 C 85 % 0,0 l/m 0,0 km/h (0 Bft) N-NW 337 12,0 C 14,9 C 0,0 km/h (0 Bft)
28.06.2012 07:15 15,6 C 84 % 0,0 l/m 0,0 km/h (0 Bft) NO 45 12,9 C 15,1 C 0,0 km/h (0 Bft)
28.06.2012 07:20 17,6 C 80 % 0,0 l/m 0,0 km/h (0 Bft) O-SO 112 14,1 C 17,3 C 0,0 km/h (0 Bft)
28.06.2012 07:25 16,4 C 79 % 0,0 l/m 0,0 km/h (0 Bft) S 180 12,7 C 17,6 C 0,0 km/h (0 Bft)
28.06.2012 07:30 16,9 C 79 % 0,0 l/m 0,0 km/h (0 Bft) N-NO 22 13,2 C 17,4 C 0,0 km/h (0 Bft)
28.06.2012 07:35 17,6 C 78 % 0,0 l/m 0,0 km/h (0 Bft) NO 45 13,7 C 18,1 C 0,0 km/h (0 Bft)
28.06.2012 07:40 19,1 C 73 % 0,0 l/m 0,0 km/h (0 Bft) S 180 14,1 C 19,5 C 0,0 km/h (0 Bft)
28.06.2012 07:45 20,0 C 69 % 0,0 l/m 0,0 km/h (0 Bft) S-SW 202 14,1 C 20,3 C 0,0 km/h (0 Bft)
28.06.2012 07:50 21,1 C 68 % 0,0 l/m 1,1 km/h (1 Bft) S-SW 202 15,0 C 21,4 C 2,6 km/h (1 Bft)
28.06.2012 07:55 21,4 C 65 % 0,0 l/m 1,6 km/h (1 Bft) S-SO 157 14,5 C 21,7 C 0,0 km/h (0 Bft)
28.06.2012 08:00 21,9 C 64 % 0,0 l/m 1,3 km/h (1 Bft) S 180 14,8 C 22,4 C 0,0 km/h (0 Bft)
28.06.2012 08:05 21,4 C 62 % 0,0 l/m 1,0 km/h (0 Bft) W-SW 247 13,8 C 22,6 C 0,0 km/h (0 Bft)
28.06.2012 08:10 22,1 C 61 % 0,0 l/m 0,5 km/h (0 Bft) N-NW 337 14,2 C 23,2 C 2,4 km/h (1 Bft)
28.06.2012 08:15 21,9 C 60 % 0,0 l/m 0,6 km/h (0 Bft) N-NO 22 13,8 C 23,4 C 0,0 km/h (0 Bft)
28.06.2012 08:20 22,5 C 60 % 0,0 l/m 0,6 km/h (0 Bft) W-NW 292 14,3 C 24,0 C 3,7 km/h (1 Bft)
28.06.2012 08:25 21,7 C 59 % 0,0 l/m 0,8 km/h (0 Bft) NW 315 13,3 C 23,8 C 2,7 km/h (1 Bft)
28.06.2012 08:30 22,8 C 59 % 0,0 l/m 1,8 km/h (1 Bft) O-SO 112 14,4 C 23,2 C 4,2 km/h (1 Bft)
28.06.2012 08:35 22,8 C 59 % 0,0 l/m 1,3 km/h (1 Bft) N-NW 337 15,1 C 23,8 C 1,9 km/h (1 Bft)
28.06.2012 08:40 22,8 C 53 % 0,0 l/m 1,8 km/h (1 Bft) W-SW 247 14,2 C 24,7 C 8,5 km/h (2 Bft)
28.06.2012 08:45 22,5 C 54 % 0,0 l/m 2,4 km/h (1 Bft) W 270 13,9 C 24,5 C 3,1 km/h (1 Bft)
28.06.2012 08:50 22,4 C 54 % 0,0 l/m 3,2 km/h (1 Bft) W 270 14,4 C 24,9 C 4,8 km/h (1 Bft)
28.06.2012 08:55 22,4 C 52 % 0,0 l/m 3,4 km/h (1 Bft) SW 225 13,4 C 24,9 C 5,8 km/h (2 Bft)
28.06.2012 09:00 22,3 C 53 % 0,0 l/m 4,2 km/h (1 Bft) W-NW 292 13,7 C 24,6 C 4,7 km/h (1 Bft)
28.06.2012 09:05 22,5 C 52 % 0,0 l/m 4,0 km/h (1 Bft) S 180 14,1 C 24,5 C 3,9 km/h (1 Bft)
28.06.2012 09:10 22,5 C 53 % 0,0 l/m 2,4 km/h (1 Bft) W-SW 247 14,0 C 25,1 C 4,3 km/h (1 Bft)
28.06.2012 09:15 22,7 C 53 % 0,0 l/m 2,4 km/h (1 Bft) W-NW 292 14,6 C 25,3 C 4,2 km/h (1 Bft)
28.06.2012 09:20 22,9 C 49 % 0,0 l/m 2,6 km/h (1 Bft) W-NW 292 13,8 C 25,5 C 2,9 km/h (1 Bft)
28.06.2012 09:25 23,1 C 50 % 0,0 l/m 2,9 km/h (1 Bft) SW 225 14,0 C 25,7 C 5,1 km/h (1 Bft)
28.06.2012 09:30 23,3 C 53 % 0,0 l/m 2,6 km/h (1 Bft) SW 225 15,2 C 26,2 C 4,8 km/h (1 Bft)
28.06.2012 09:35 23,3 C 49 % 0,0 l/m 2,9 km/h (1 Bft) N-NW 337 13,6 C 26,3 C 3,9 km/h (1 Bft)
28.06.2012 09:40 23,6 C 50 % 0,0 l/m 3,1 km/h (1 Bft) W 270 14,7 C 26,6 C 2,1 km/h (1 Bft)
28.06.2012 09:45 23,7 C 51 % 0,0 l/m 2,7 km/h (1 Bft) N-NW 337 14,6 C 26,7 C 3,2 km/h (1 Bft)
28.06.2012 09:50 23,7 C 49 % 0,0 l/m 3,1 km/h (1 Bft) W-SW 247 13,8 C 26,8 C 5,1 km/h (1 Bft)
28.06.2012 09:55 24,1 C 50 % 0,0 l/m 2,6 km/h (1 Bft) S-SW 202 14,7 C 27,1 C 2,3 km/h (1 Bft)
28.06.2012 10:00 24,3 C 50 % 0,0 l/m 2,3 km/h (1 Bft) W-NW 292 14,2 C 27,4 C 4,5 km/h (1 Bft)
28.06.2012 10:05 24,6 C 48 % 0,0 l/m 2,3 km/h (1 Bft) W-SW 247 14,0 C 27,6 C 4,5 km/h (1 Bft)
28.06.2012 10:10 24,8 C 48 % 0,0 l/m 3,5 km/h (1 Bft) W-SW 247 14,5 C 27,6 C 5,3 km/h (1 Bft)
28.06.2012 10:15 24,8 C 49 % 0,0 l/m 3,5 km/h (1 Bft) S 180 14,5 C 27,4 C 1,9 km/h (1 Bft)
28.06.2012 10:20 25,3 C 49 % 0,0 l/m 3,5 km/h (1 Bft) N-NO 22 14,8 C 27,5 C 3,1 km/h (1 Bft)
28.06.2012 10:25 25,3 C 51 % 0,0 l/m 2,7 km/h (1 Bft) O-NO 67 14,7 C 27,7 C 0,0 km/h (0 Bft)
28.06.2012 10:30 24,6 C 53 % 0,0 l/m 1,6 km/h (1 Bft) N-NW 337 14,4 C 28,1 C 0,0 km/h (0 Bft)
28.06.2012 10:35 25,3 C 52 % 0,0 l/m 1,9 km/h (1 Bft) N 360 14,7 C 27,6 C 2,4 km/h (1 Bft)
28.06.2012 10:40 25,6 C 50 % 0,0 l/m 1,8 km/h (1 Bft) O-NO 67 14,9 C 28,5 C 2,4 km/h (1 Bft)
28.06.2012 10:45 26,1 C 50 % 0,0 l/m 1,8 km/h (1 Bft) NW 315 15,3 C 28,7 C 0,0 km/h (0 Bft)
28.06.2012 10:50 26,5 C 47 % 0,0 l/m 2,6 km/h (1 Bft) N-NO 22 14,3 C 29,0 C 2,9 km/h (1 Bft)
28.06.2012 10:55 26,2 C 49 % 0,0 l/m 2,7 km/h (1 Bft) W-SW 247 14,6 C 29,1 C 3,9 km/h (1 Bft)
28.06.2012 11:00 26,3 C 48 % 0,0 l/m 3,1 km/h (1 Bft) NW 315 14,4 C 28,9 C 3,9 km/h (1 Bft)
28.06.2012 11:05 26,1 C 49 % 0,0 l/m 3,2 km/h (1 Bft) NW 315 14,5 C 28,9 C 2,4 km/h (1 Bft)
28.06.2012 11:10 26,1 C 48 % 0,0 l/m 3,2 km/h (1 Bft) S-SW 202 14,2 C 28,9 C 4,0 km/h (1 Bft)
28.06.2012 11:15 26,2 C 48 % 0,0 l/m 3,5 km/h (1 Bft) SW 225 14,3 C 28,8 C 5,5 km/h (1 Bft)
28.06.2012 11:20 26,1 C 45 % 0,0 l/m 3,7 km/h (1 Bft) S 180 13,2 C 28,6 C 0,0 km/h (0 Bft)
28.06.2012 11:25 26,4 C 46 % 0,0 l/m 3,7 km/h (1 Bft) W-SW 247 13,8 C 28,7 C 2,7 km/h (1 Bft)
28.06.2012 11:30 26,6 C 44 % 0,0 l/m 2,7 km/h (1 Bft) N-NW 337 13,3 C 29,5 C 0,0 km/h (0 Bft)
28.06.2012 11:35 26,5 C 46 % 0,0 l/m 2,4 km/h (1 Bft) N-NW 337 13,9 C 29,6 C 0,0 km/h (0 Bft)
28.06.2012 11:40 26,2 C 45 % 0,0 l/m 3,9 km/h (1 Bft) W-NW 292 13,3 C 29,2 C 10,5 km/h (2 Bft)
28.06.2012 11:45 26,7 C 44 % 0,0 l/m 4,5 km/h (1 Bft) W 270 13,4 C 29,1 C 7,4 km/h (2 Bft)
28.06.2012 11:50 26,8 C 42 % 0,0 l/m 5,0 km/h (1 Bft) W-SW 247 12,8 C 28,7 C 5,0 km/h (1 Bft)
28.06.2012 11:55 26,7 C 42 % 0,0 l/m 5,0 km/h (1 Bft) W 270 12,7 C 28,7 C 4,5 km/h (1 Bft)
28.06.2012 12:00 27,0 C 43 % 0,0 l/m 5,1 km/h (1 Bft) W-SW 247 13,3 C 28,9 C 12,9 km/h (3 Bft)
28.06.2012 12:05 26,9 C 43 % 0,0 l/m 5,1 km/h (1 Bft) NW 315 13,2 C 28,8 C 7,7 km/h (2 Bft)
28.06.2012 12:10 27,1 C 39 % 0,0 l/m 5,6 km/h (1 Bft) W 270 11,9 C 28,8 C 8,4 km/h (2 Bft)
28.06.2012 12:15 27,1 C 43 % 0,0 l/m 5,5 km/h (1 Bft) W-SW 247 13,4 C 28,8 C 9,7 km/h (2 Bft)
28.06.2012 12:20 27,6 C 40 % 0,0 l/m 5,8 km/h (2 Bft) W 270 12,8 C 28,6 C 12,7 km/h (3 Bft)
28.06.2012 12:25 27,4 C 39 % 0,0 l/m 6,3 km/h (2 Bft) W-NW 292 12,2 C 28,6 C 10,1 km/h (2 Bft)
28.06.2012 12:30 26,5 C 38 % 0,0 l/m 5,8 km/h (2 Bft) NW 315 11,0 C 28,7 C 3,7 km/h (1 Bft)
28.06.2012 12:35 26,2 C 42 % 0,0 l/m 4,8 km/h (1 Bft) N-NW 337 12,3 C 28,5 C 3,7 km/h (1 Bft)
28.06.2012 12:40 26,6 C 44 % 0,0 l/m 3,5 km/h (1 Bft) W 270 13,3 C 28,4 C 2,7 km/h (1 Bft)
28.06.2012 12:45 27,6 C 44 % 0,0 l/m 3,7 km/h (1 Bft) N 360 14,2 C 28,6 C 5,1 km/h (1 Bft)
28.06.2012 12:50 26,6 C 43 % 0,0 l/m 5,0 km/h (1 Bft) W 270 13,0 C 29,3 C 13,8 km/h (3 Bft)
28.06.2012 12:55 26,4 C 46 % 0,0 l/m 5,0 km/h (1 Bft) W-SW 247 13,8 C 28,6 C 2,7 km/h (1 Bft)
28.06.2012 13:00 25,6 C 49 % 0,0 l/m 3,9 km/h (1 Bft) W-NW 292 14,1 C 28,0 C 9,7 km/h (2 Bft)
28.06.2012 13:05 25,6 C 49 % 0,0 l/m 4,0 km/h (1 Bft) W-NW 292 14,1 C 27,7 C 4,8 km/h (1 Bft)
28.06.2012 13:10 25,4 C 49 % 0,0 l/m 4,7 km/h (1 Bft) W 270 13,9 C 27,2 C 7,1 km/h (2 Bft)
28.06.2012 13:15 25,0 C 51 % 0,0 l/m 4,0 km/h (1 Bft) N-NW 337 14,1 C 26,8 C 2,1 km/h (1 Bft)
28.06.2012 13:20 25,4 C 53 % 0,0 l/m 2,9 km/h (1 Bft) N-NW 337 15,1 C 26,9 C 4,2 km/h (1 Bft)
28.06.2012 13:25 25,7 C 52 % 0,0 l/m 2,9 km/h (1 Bft) W 270 15,1 C 26,9 C 6,1 km/h (2 Bft)
28.06.2012 13:30 25,6 C 52 % 0,0 l/m 3,4 km/h (1 Bft) NW 315 15,0 C 27,4 C 4,7 km/h (1 Bft)
28.06.2012 13:35 26,2 C 49 % 0,0 l/m 3,5 km/h (1 Bft) W-NW 292 14,6 C 27,3 C 2,1 km/h (1 Bft)
28.06.2012 13:40 25,9 C 48 % 0,0 l/m 3,7 km/h (1 Bft) S-SW 202 14,0 C 27,6 C 4,8 km/h (1 Bft)
28.06.2012 13:45 25,6 C 47 % 0,0 l/m 4,0 km/h (1 Bft) SW 225 13,4 C 27,5 C 6,4 km/h (2 Bft)
28.06.2012 13:50 25,8 C 48 % 0,0 l/m 4,3 km/h (1 Bft) W-NW 292 13,9 C 27,3 C 2,9 km/h (1 Bft)
28.06.2012 13:55 25,9 C 46 % 0,0 l/m 3,4 km/h (1 Bft) N-NW 337 13,4 C 27,7 C 5,8 km/h (2 Bft)
28.06.2012 14:00 25,6 C 49 % 0,0 l/m 3,1 km/h (1 Bft) W-NW 292 14,1 C 27,7 C 2,7 km/h (1 Bft)
28.06.2012 14:05 26,0 C 49 % 0,0 l/m 2,7 km/h (1 Bft) SO 135 14,4 C 27,7 C 0,0 km/h (0 Bft)
28.06.2012 14:10 25,4 C 49 % 0,0 l/m 1,3 km/h (1 Bft) N 360 13,9 C 28,3 C 0,0 km/h (0 Bft)
28.06.2012 14:15 25,5 C 53 % 0,0 l/m 1,9 km/h (1 Bft) W-SW 247 15,2 C 28,2 C 1,9 km/h (1 Bft)
28.06.2012 14:20 26,3 C 49 % 0,0 l/m 1,8 km/h (1 Bft) N 360 14,7 C 28,3 C 3,9 km/h (1 Bft)
28.06.2012 14:25 26,8 C 46 % 0,0 l/m 1,8 km/h (1 Bft) N 360 14,2 C 28,6 C 2,7 km/h (1 Bft)
28.06.2012 14:30 28,0 C 44 % 0,0 l/m 2,1 km/h (1 Bft) W 270 14,6 C 30,2 C 5,8 km/h (2 Bft)
28.06.2012 14:35 27,8 C 46 % 0,0 l/m 3,1 km/h (1 Bft) W 270 15,1 C 30,4 C 7,7 km/h (2 Bft)
28.06.2012 14:40 28,1 C 47 % 0,0 l/m 3,7 km/h (1 Bft) O-SO 112 15,7 C 30,7 C 2,6 km/h (1 Bft)
28.06.2012 14:45 28,2 C 43 % 0,0 l/m 3,4 km/h (1 Bft) W-NW 292 14,4 C 30,9 C 2,1 km/h (1 Bft)
28.06.2012 14:50 27,7 C 46 % 0,0 l/m 2,6 km/h (1 Bft) W-SW 247 15,0 C 31,3 C 3,7 km/h (1 Bft)
28.06.2012 14:55 27,0 C 47 % 0,0 l/m 3,2 km/h (1 Bft) S 180 14,7 C 30,8 C 3,1 km/h (1 Bft)
28.06.2012 15:00 27,5 C 47 % 0,0 l/m 2,7 km/h (1 Bft) SW 225 15,2 C 30,2 C 3,2 km/h (1 Bft)
28.06.2012 15:05 27,9 C 47 % 0,0 l/m 2,6 km/h (1 Bft) W-NW 292 15,5 C 30,3 C 3,7 km/h (1 Bft)
28.06.2012 15:10 27,4 C 47 % 0,0 l/m 2,9 km/h (1 Bft) NO 45 15,1 C 30,6 C 3,9 km/h (1 Bft)
28.06.2012 15:15 27,4 C 47 % 0,0 l/m 3,1 km/h (1 Bft) S 180 15,1 C 30,1 C 3,1 km/h (1 Bft)
28.06.2012 15:20 28,1 C 47 % 0,0 l/m 2,1 km/h (1 Bft) W-SW 247 15,7 C 30,3 C 1,6 km/h (1 Bft)
28.06.2012 15:25 28,0 C 47 % 0,0 l/m 1,9 km/h (1 Bft) S-SW 202 15,6 C 30,3 C 2,4 km/h (1 Bft)
28.06.2012 15:30 28,1 C 46 % 0,0 l/m 3,1 km/h (1 Bft) NW 315 15,4 C 30,9 C 4,7 km/h (1 Bft)
28.06.2012 15:35 28,2 C 44 % 0,0 l/m 3,2 km/h (1 Bft) S-SW 202 14,8 C 31,2 C 3,9 km/h (1 Bft)
28.06.2012 15:40 28,8 C 43 % 0,0 l/m 4,2 km/h (1 Bft) W-SW 247 15,0 C 31,7 C 6,1 km/h (2 Bft)
28.06.2012 15:45 28,9 C 43 % 0,0 l/m 3,9 km/h (1 Bft) W-NW 292 15,0 C 31,7 C 0,0 km/h (0 Bft)
28.06.2012 15:50 27,5 C 44 % 0,0 l/m 3,4 km/h (1 Bft) W-SW 247 14,1 C 31,7 C 4,3 km/h (1 Bft)
28.06.2012 15:55 28,1 C 44 % 0,0 l/m 3,2 km/h (1 Bft) W 270 14,7 C 31,3 C 4,5 km/h (1 Bft)
28.06.2012 16:00 27,9 C 46 % 0,0 l/m 2,6 km/h (1 Bft) N 360 15,2 C 31,3 C 5,3 km/h (1 Bft)
28.06.2012 16:05 28,1 C 45 % 0,0 l/m 2,4 km/h (1 Bft) N-NO 22 15,0 C 31,4 C 2,7 km/h (1 Bft)
28.06.2012 16:10 28,0 C 49 % 0,0 l/m 2,4 km/h (1 Bft) W-SW 247 16,3 C 31,3 C 7,4 km/h (2 Bft)
28.06.2012 16:15 28,4 C 44 % 0,0 l/m 2,7 km/h (1 Bft) S-SO 157 14,9 C 31,3 C 1,9 km/h (1 Bft)
28.06.2012 16:20 28,1 C 46 % 0,0 l/m 2,7 km/h (1 Bft) W-SW 247 15,4 C 31,6 C 6,3 km/h (2 Bft)
28.06.2012 16:25 27,9 C 44 % 0,0 l/m 2,7 km/h (1 Bft) SW 225 14,5 C 31,5 C 3,5 km/h (1 Bft)
28.06.2012 16:30 27,7 C 47 % 0,0 l/m 2,1 km/h (1 Bft) N-NO 22 15,3 C 31,3 C 0,0 km/h (0 Bft)
28.06.2012 16:35 27,3 C 47 % 0,0 l/m 1,4 km/h (1 Bft) N-NO 22 15,0 C 31,3 C 0,0 km/h (0 Bft)
28.06.2012 16:40 27,5 C 48 % 0,0 l/m 1,0 km/h (0 Bft) S-SW 202 15,5 C 31,5 C 0,0 km/h (0 Bft)
28.06.2012 16:45 27,6 C 48 % 0,0 l/m 0,8 km/h (0 Bft) W-SW 247 15,6 C 31,6 C 3,4 km/h (1 Bft)
28.06.2012 16:50 27,5 C 50 % 0,0 l/m 1,3 km/h (1 Bft) O-SO 112 16,1 C 31,7 C 1,8 km/h (1 Bft)
28.06.2012 16:55 27,0 C 47 % 0,0 l/m 1,4 km/h (1 Bft) W 270 14,7 C 31,8 C 3,5 km/h (1 Bft)
28.06.2012 17:00 26,5 C 51 % 0,0 l/m 2,1 km/h (1 Bft) W-SW 247 15,5 C 30,9 C 4,0 km/h (1 Bft)
28.06.2012 17:05 26,3 C 51 % 0,0 l/m 2,3 km/h (1 Bft) W 270 15,3 C 30,7 C 2,6 km/h (1 Bft)
28.06.2012 17:10 26,4 C 52 % 0,0 l/m 1,3 km/h (1 Bft) O 90 15,7 C 30,0 C 0,0 km/h (0 Bft)
28.06.2012 17:15 26,3 C 52 % 0,0 l/m 1,0 km/h (0 Bft) N 360 15,6 C 30,0 C 0,0 km/h (0 Bft)
28.06.2012 17:20 26,3 C 53 % 0,0 l/m 1,0 km/h (0 Bft) O 90 15,9 C 29,6 C 0,0 km/h (0 Bft)
28.06.2012 17:25 26,4 C 52 % 0,0 l/m 1,1 km/h (1 Bft) N-NW 337 15,7 C 29,7 C 7,1 km/h (2 Bft)
28.06.2012 17:30 26,6 C 55 % 0,0 l/m 1,3 km/h (1 Bft) N-NW 337 16,8 C 29,8 C 3,9 km/h (1 Bft)
28.06.2012 17:35 26,4 C 52 % 0,0 l/m 1,6 km/h (1 Bft) N-NW 337 15,7 C 29,6 C 0,0 km/h (0 Bft)
28.06.2012 17:40 26,1 C 52 % 0,0 l/m 1,3 km/h (1 Bft) W-NW 292 15,5 C 29,7 C 3,9 km/h (1 Bft)
28.06.2012 17:45 26,0 C 53 % 0,0 l/m 0,8 km/h (0 Bft) S-SO 157 15,7 C 29,5 C 0,0 km/h (0 Bft)
28.06.2012 17:50 25,8 C 57 % 0,0 l/m 0,5 km/h (0 Bft) SO 135 16,6 C 29,3 C 0,0 km/h (0 Bft)
28.06.2012 17:55 25,6 C 55 % 0,0 l/m 0,2 km/h (0 Bft) W 270 15,9 C 29,2 C 1,6 km/h (1 Bft)
28.06.2012 18:00 25,6 C 56 % 0,0 l/m 0,2 km/h (0 Bft) N 360 16,2 C 28,9 C 0,0 km/h (0 Bft)
28.06.2012 18:05 25,8 C 57 % 0,0 l/m 0,2 km/h (0 Bft) N-NW 337 16,6 C 28,9 C 0,0 km/h (0 Bft)
28.06.2012 18:10 26,4 C 55 % 0,0 l/m 0,3 km/h (0 Bft) NO 45 16,6 C 29,5 C 0,0 km/h (0 Bft)
28.06.2012 18:15 26,3 C 55 % 0,0 l/m 0,2 km/h (0 Bft) SW 225 16,5 C 29,7 C 0,0 km/h (0 Bft)
28.06.2012 18:20 26,4 C 55 % 0,0 l/m 0,2 km/h (0 Bft) N 360 16,6 C 30,4 C 1,9 km/h (1 Bft)
28.06.2012 18:25 25,9 C 56 % 0,0 l/m 0,2 km/h (0 Bft) N 360 16,4 C 30,7 C 0,0 km/h (0 Bft)
28.06.2012 18:30 26,1 C 56 % 0,0 l/m 0,5 km/h (0 Bft) N 360 16,6 C 30,9 C 0,0 km/h (0 Bft)
28.06.2012 18:35 26,2 C 55 % 0,0 l/m 0,5 km/h (0 Bft) N-NW 337 16,4 C 31,3 C 2,4 km/h (1 Bft)
28.06.2012 18:40 26,2 C 54 % 0,0 l/m 0,8 km/h (0 Bft) W-NW 292 16,1 C 31,5 C 0,0 km/h (0 Bft)
28.06.2012 18:45 25,7 C 56 % 0,0 l/m 0,8 km/h (0 Bft) W-NW 292 16,2 C 31,3 C 0,0 km/h (0 Bft)
28.06.2012 18:50 25,1 C 57 % 0,0 l/m 0,5 km/h (0 Bft) N 360 16,0 C 30,1 C 0,0 km/h (0 Bft)
28.06.2012 18:55 24,6 C 58 % 0,0 l/m 0,3 km/h (0 Bft) NO 45 15,8 C 29,2 C 0,0 km/h (0 Bft)
28.06.2012 19:00 24,2 C 59 % 0,0 l/m 0,0 km/h (0 Bft) N-NO 22 15,7 C 27,8 C 0,0 km/h (0 Bft)
28.06.2012 19:05 24,0 C 59 % 0,0 l/m 0,0 km/h (0 Bft) N-NO 22 15,5 C 27,5 C 0,0 km/h (0 Bft)
28.06.2012 19:10 24,0 C 59 % 0,0 l/m 0,0 km/h (0 Bft) N 360 15,5 C 26,2 C 0,0 km/h (0 Bft)
28.06.2012 19:15 24,0 C 60 % 0,0 l/m 0,0 km/h (0 Bft) N 360 15,7 C 26,1 C 0,0 km/h (0 Bft)
28.06.2012 19:20 24,2 C 60 % 0,0 l/m 0,2 km/h (0 Bft) N-NO 22 15,9 C 26,3 C 0,0 km/h (0 Bft)
28.06.2012 19:25 24,4 C 60 % 0,0 l/m 0,2 km/h (0 Bft) O 90 16,1 C 26,5 C 0,0 km/h (0 Bft)
28.06.2012 19:30 24,4 C 61 % 0,0 l/m 0,0 km/h (0 Bft) O 90 16,4 C 27,2 C 0,0 km/h (0 Bft)
28.06.2012 19:35 24,3 C 61 % 0,0 l/m 0,0 km/h (0 Bft) O 90 16,3 C 27,0 C 0,0 km/h (0 Bft)
28.06.2012 19:40 24,1 C 61 % 0,0 l/m 0,0 km/h (0 Bft) NO 45 16,1 C 26,6 C 0,0 km/h (0 Bft)
28.06.2012 19:45 23,8 C 63 % 0,0 l/m 0,0 km/h (0 Bft) N-NO 22 16,3 C 26,4 C 0,0 km/h (0 Bft)
28.06.2012 19:50 23,5 C 65 % 0,0 l/m 0,0 km/h (0 Bft) N 360 16,5 C 25,8 C 0,0 km/h (0 Bft)
28.06.2012 19:55 23,3 C 65 % 0,0 l/m 0,0 km/h (0 Bft) N 360 16,3 C 25,6 C 0,0 km/h (0 Bft)
28.06.2012 20:00 23,1 C 66 % 0,0 l/m 0,0 km/h (0 Bft) O 90 16,4 C 24,9 C 0,0 km/h (0 Bft)
28.06.2012 20:05 23,0 C 69 % 0,0 l/m 0,0 km/h (0 Bft) N-NO 22 17,0 C 24,7 C 0,0 km/h (0 Bft)
28.06.2012 20:10 22,6 C 71 % 0,0 l/m 0,0 km/h (0 Bft) NO 45 17,1 C 23,9 C 0,0 km/h (0 Bft)
28.06.2012 20:15 22,5 C 71 % 0,0 l/m 0,0 km/h (0 Bft) NO 45 17,0 C 23,5 C 0,0 km/h (0 Bft)
28.06.2012 20:20 22,3 C 71 % 0,0 l/m 0,0 km/h (0 Bft) NO 45 16,8 C 23,0 C 0,0 km/h (0 Bft)
28.06.2012 20:25 22,1 C 71 % 0,0 l/m 0,0 km/h (0 Bft) N 360 16,6 C 22,8 C 0,0 km/h (0 Bft)
28.06.2012 20:30 21,7 C 72 % 0,0 l/m 0,2 km/h (0 Bft) N-NO 22 16,4 C 22,4 C 2,1 km/h (1 Bft)
28.06.2012 20:35 21,8 C 73 % 0,0 l/m 0,2 km/h (0 Bft) N 360 16,7 C 22,4 C 0,0 km/h (0 Bft)
28.06.2012 20:40 21,8 C 72 % 0,0 l/m 0,0 km/h (0 Bft) N 360 16,5 C 22,6 C 0,0 km/h (0 Bft)
28.06.2012 20:45 21,7 C 72 % 0,0 l/m 0,0 km/h (0 Bft) NO 45 16,4 C 22,5 C 0,0 km/h (0 Bft)
28.06.2012 20:50 21,5 C 74 % 0,0 l/m 0,0 km/h (0 Bft) N-NO 22 16,7 C 22,2 C 0,0 km/h (0 Bft)
28.06.2012 20:55 21,4 C 74 % 0,0 l/m 0,2 km/h (0 Bft) N-NW 337 16,6 C 22,1 C 2,1 km/h (1 Bft)
28.06.2012 21:00 21,3 C 73 % 0,0 l/m 0,2 km/h (0 Bft) N 360 16,3 C 22,0 C 0,0 km/h (0 Bft)
28.06.2012 21:05 21,4 C 73 % 0,0 l/m 0,2 km/h (0 Bft) NO 45 16,4 C 22,0 C 0,0 km/h (0 Bft)
28.06.2012 21:10 21,4 C 73 % 0,0 l/m 0,0 km/h (0 Bft) N-NW 337 16,4 C 22,0 C 0,0 km/h (0 Bft)
28.06.2012 21:15 21,4 C 73 % 0,0 l/m 0,0 km/h (0 Bft) N-NO 22 16,4 C 22,0 C 0,0 km/h (0 Bft)
28.06.2012 21:20 21,1 C 74 % 0,0 l/m 0,0 km/h (0 Bft) W-NW 292 16,3 C 21,9 C 0,0 km/h (0 Bft)
28.06.2012 21:25 21,0 C 74 % 0,0 l/m 0,0 km/h (0 Bft) W-SW 247 16,2 C 21,8 C 0,0 km/h (0 Bft)
28.06.2012 21:30 21,0 C 73 % 0,0 l/m 0,0 km/h (0 Bft) N 360 16,0 C 21,4 C 0,0 km/h (0 Bft)
28.06.2012 21:35 21,0 C 73 % 0,0 l/m 0,5 km/h (0 Bft) N 360 16,0 C 21,2 C 2,7 km/h (1 Bft)
28.06.2012 21:40 20,8 C 73 % 0,0 l/m 1,1 km/h (1 Bft) N 360 15,8 C 21,0 C 0,0 km/h (0 Bft)
28.06.2012 21:45 20,7 C 72 % 0,0 l/m 1,1 km/h (1 Bft) N-NO 22 15,5 C 20,9 C 0,0 km/h (0 Bft)
28.06.2012 21:50 20,5 C 72 % 0,0 l/m 0,0 km/h (0 Bft) N 360 15,3 C 20,5 C 0,0 km/h (0 Bft)
28.06.2012 21:55 20,4 C 72 % 0,0 l/m 0,0 km/h (0 Bft) O 90 15,2 C 20,4 C 0,0 km/h (0 Bft)
28.06.2012 22:00 20,2 C 73 % 0,0 l/m 0,0 km/h (0 Bft) S-SO 157 15,2 C 20,2 C 0,0 km/h (0 Bft)
28.06.2012 22:05 20,1 C 73 % 0,0 l/m 0,0 km/h (0 Bft) N-NW 337 15,1 C 20,2 C 0,0 km/h (0 Bft)
28.06.2012 22:10 19,9 C 74 % 0,0 l/m 0,2 km/h (0 Bft) N-NO 22 15,1 C 20,1 C 0,0 km/h (0 Bft)
28.06.2012 22:15 19,9 C 73 % 0,0 l/m 0,2 km/h (0 Bft) N-NW 337 14,9 C 20,0 C 0,0 km/h (0 Bft)
28.06.2012 22:20 19,4 C 74 % 0,0 l/m 0,0 km/h (0 Bft) W-SW 247 14,6 C 19,8 C 0,0 km/h (0 Bft)
28.06.2012 22:25 19,3 C 73 % 0,0 l/m 0,0 km/h (0 Bft) N 360 14,3 C 19,7 C 0,0 km/h (0 Bft)
28.06.2012 22:30 19,0 C 73 % 0,0 l/m 0,2 km/h (0 Bft) W-NW 292 14,0 C 19,4 C 0,0 km/h (0 Bft)
28.06.2012 22:35 18,9 C 73 % 0,0 l/m 0,2 km/h (0 Bft) SO 135 13,9 C 19,3 C 1,8 km/h (1 Bft)
28.06.2012 22:40 18,7 C 73 % 0,0 l/m 0,2 km/h (0 Bft) W 270 13,8 C 19,1 C 0,0 km/h (0 Bft)
28.06.2012 22:45 18,6 C 73 % 0,0 l/m 0,2 km/h (0 Bft) N-NW 337 13,7 C 19,1 C 0,0 km/h (0 Bft)
28.06.2012 22:50 18,5 C 72 % 0,0 l/m 0,0 km/h (0 Bft) O 90 13,4 C 18,8 C 0,0 km/h (0 Bft)
28.06.2012 22:55 18,3 C 72 % 0,0 l/m 0,0 km/h (0 Bft) W-SW 247 13,2 C 18,8 C 0,0 km/h (0 Bft)
28.06.2012 23:00 18,4 C 72 % 0,0 l/m 0,0 km/h (0 Bft) NO 45 13,3 C 18,7 C 0,0 km/h (0 Bft)
28.06.2012 23:05 18,3 C 72 % 0,0 l/m 0,0 km/h (0 Bft) SO 135 13,2 C 18,8 C 0,0 km/h (0 Bft)
28.06.2012 23:10 18,5 C 72 % 0,0 l/m 0,3 km/h (0 Bft) NW 315 13,4 C 18,8 C 2,4 km/h (1 Bft)
28.06.2012 23:15 18,6 C 72 % 0,0 l/m 0,3 km/h (0 Bft) W-SW 247 13,4 C 19,1 C 2,4 km/h (1 Bft)
28.06.2012 23:20 18,8 C 72 % 0,0 l/m 0,5 km/h (0 Bft) N-NW 337 13,6 C 19,2 C 0,0 km/h (0 Bft)
28.06.2012 23:25 18,8 C 72 % 0,0 l/m 0,2 km/h (0 Bft) S-SW 202 13,6 C 19,3 C 0,0 km/h (0 Bft)
28.06.2012 23:30 18,9 C 72 % 0,0 l/m 0,8 km/h (0 Bft) O-SO 112 13,7 C 19,6 C 0,0 km/h (0 Bft)
28.06.2012 23:35 18,9 C 72 % 0,0 l/m 0,8 km/h (0 Bft) N-NO 22 13,7 C 19,6 C 0,0 km/h (0 Bft)
28.06.2012 23:40 18,9 C 72 % 0,0 l/m 0,5 km/h (0 Bft) S 180 13,7 C 19,6 C 0,0 km/h (0 Bft)
28.06.2012 23:45 18,8 C 72 % 0,0 l/m 0,3 km/h (0 Bft) W-SW 247 13,6 C 19,6 C 0,0 km/h (0 Bft)
28.06.2012 23:50 19,0 C 72 % 0,0 l/m 0,8 km/h (0 Bft) S 180 13,8 C 19,8 C 0,0 km/h (0 Bft)
28.06.2012 23:55 19,2 C 71 % 0,0 l/m 0,6 km/h (0 Bft) O-SO 112 13,8 C 19,8 C 0,0 km/h (0 Bft)
_ Min-Zeit 05:45 12:30 - 23:05 - - 04:20 05:45 23:55
Minimum _ 10,9 C 38 % - 0,0 km/h (0 Bft) - - 9,4 C 10,5 C 0,0 km/h (0 Bft)
_ Max-Zeit 15:45 06:20 23:55 12:25 - - 20:10 16:55 12:50
Maximum _ 28,9 C 91 % 0,0 l/m 6,3 km/h
W-NW (2 Bft)
- - 17,1 C 31,8 C 13,8 km/h
W (3 Bft)
Durchschnitt _ 20,5 C 66 % #0,0 l/m 1,3 km/h (1 Bft) W-SW - 13,4 C 21,9 C 1,7 km/h (1 Bft)